sat.trackr.live / text

‹ back to catalog

SHARJAHSAT-1

NORAD 55104 · 2023-001CZ

PAYLOAD ACTIVE UNKNOWN

§ Identity

Operator
Country
UAE
Launch date
2023-01-03
Launch site
AFETR
Launch vehicle
Mass (kg)
RCS (m²)

External: N2YO · Heavens-Above · Gunter

§ Orbital elements

Epoch: 2026-09-21T23:07:02.730720Z

Period
92.74 min
Inclination
97.3059°
Eccentricity
0.0006727
Mean motion
15.52651258 rev/d
Perigee alt
404.4 km
Apogee alt
413.6 km
Semi-major
6,787.1 km
B*
3.0517e-4
RAAN
335.2529°
Arg perigee
110.3045°
Mean anomaly
249.8932°
Rev number
20,749

§ Raw data

SHARJAHSAT-11 55104U 23001CZ  26264.96322605  .00018728  00000+0  30517-3 0  99982 55104  97.3059 335.2529 0006727 110.3045 249.8932 15.52651258207494

JSON: /api/v1/satellites/55104 · /tle

For live sub-satellite position, see the globe view (requires WebGL).

§ Visibility from observer

Set your observer location to see the next 7 days of passes ≥ 10°. The values pass through the URL so the page stays shareable.

No JS? Fill the form by hand. The geolocation button needs JavaScript.

§ Radio — SatNOGS DB

ModeDescriptionDownlinkUplink
GMSK Mode U - GMSK9k6 437.325 MHz
CW CW Beacon (inactive) 437.325 MHz
GMSK Mode S - GMSK (inactive) 2.405 GHz

3 transmitters · refreshed weekly from db.satnogs.org